| time (UTC) | temp F | wind direction | speed MPH | gust MPH | rain 1hr in | rain 24hr in | rain mn in | humidity % | barometer mb |
| 20260506001519 | 72 | 257 | 11.0 | 24.0 | 0.00 | 0.32 | 0.15 | 29 | 1011.7 |
| 20260506000022 | 73 | 236 | 13.0 | 20.0 | 0.00 | 0.32 | 0.15 | 30 | 1011.6 |
| 20260505234506 | 73 | 286 | 10.0 | 18.0 | 0.00 | 0.32 | 0.15 | 29 | 1011.5 |
| 20260505233017 | 73 | 244 | 11.0 | 19.0 | 0.00 | 0.32 | 0.15 | 29 | 1011.4 |
| 20260505231520 | 74 | 258 | 9.0 | 19.0 | 0.00 | 0.32 | 0.15 | 30 | 1011.5 |
| 20260505230018 | 73 | 250 | 9.0 | 19.0 | 0.00 | 0.32 | 0.15 | 29 | 1011.5 |
| 20260505224530 | 73 | 314 | 8.0 | 19.0 | 0.00 | 0.32 | 0.15 | 31 | 1011.7 |
| 20260505223011 | 72 | 224 | 8.0 | 19.0 | 0.00 | 0.32 | 0.15 | 33 | 1011.9 |
| 20260505221514 | 72 | 236 | 15.0 | 20.0 | 0.00 | 0.32 | 0.15 | 33 | 1011.9 |
| 20260505220008 | 72 | 203 | 8.0 | 20.0 | 0.00 | 0.32 | 0.15 | 34 | 1012.0 |
| 20260505214504 | 71 | 211 | 8.0 | 17.0 | 0.00 | 0.32 | 0.15 | 34 | 1012.3 |
| 20260505213002 | 72 | 260 | 11.0 | 19.0 | 0.00 | 0.32 | 0.15 | 37 | 1012.3 |
| 20260505211503 | 72 | 278 | 8.0 | 18.0 | 0.00 | 0.32 | 0.15 | 41 | 1012.4 |
| 20260505210004 | 70 | 232 | 9.0 | 16.0 | 0.00 | 0.32 | 0.15 | 46 | 1012.7 |
| 20260505204503 | 70 | 307 | 4.0 | 17.0 | 0.00 | 0.32 | 0.15 | 49 | 1012.9 |
| 20260505203005 | 71 | 307 | 11.0 | 21.0 | 0.00 | 0.32 | 0.15 | 47 | 1012.8 |
| 20260505201506 | 71 | 240 | 11.0 | 19.0 | 0.00 | 0.32 | 0.15 | 41 | 1012.9 |
| 20260505200012 | 70 | 231 | 12.0 | 16.0 | 0.00 | 0.32 | 0.15 | 48 | 1013.1 |
| 20260505194504 | 69 | 241 | 6.0 | 17.0 | 0.00 | 0.32 | 0.15 | 54 | 1013.2 |
| 20260505193009 | 68 | 242 | 6.0 | 14.0 | 0.00 | 0.32 | 0.15 | 55 | 1013.3 |
| 20260505191508 | 67 | 267 | 6.0 | 13.0 | 0.00 | 0.32 | 0.15 | 58 | 1013.6 |
| 20260505190006 | 67 | 188 | 10.0 | 14.0 | 0.00 | 0.32 | 0.15 | 55 | 1013.7 |
| 20260505184513 | 67 | 209 | 2.0 | 6.0 | 0.00 | 0.32 | 0.15 | 59 | 1013.9 |
| 20260505183006 | 66 | 235 | 4.0 | 8.0 | 0.00 | 0.32 | 0.15 | 61 | 1014.1 |
| 20260505181509 | 64 | 270 | 0.0 | 5.0 | 0.00 | 0.32 | 0.15 | 62 | 1014.2 |
| 20260505180011 | 64 | 238 | 4.0 | 9.0 | 0.00 | 0.32 | 0.15 | 65 | 1014.5 |
| 20260505174511 | 63 | 230 | 6.0 | 10.0 | 0.00 | 0.32 | 0.15 | 65 | 1014.6 |
| 20260505173019 | 63 | 283 | 4.0 | 9.0 | 0.00 | 0.32 | 0.15 | 67 | 1014.6 |
| 20260505171505 | 63 | 247 | 1.0 | 8.0 | 0.00 | 0.32 | 0.15 | 67 | 1014.5 |
| 20260505170012 | 62 | 286 | 1.0 | 6.0 | 0.00 | 0.32 | 0.15 | 67 | 1014.5 |
| 20260505164509 | 62 | 282 | 3.0 | 8.0 | 0.00 | 0.32 | 0.15 | 69 | 1014.5 |
| 20260505163014 | 62 | 230 | 4.0 | 7.0 | 0.00 | 0.32 | 0.15 | 71 | 1014.4 |
| 20260505161513 | 61 | 243 | 3.0 | 8.0 | 0.00 | 0.32 | 0.15 | 73 | 1014.6 |
| 20260505153012 | 60 | 223 | 3.0 | 6.0 | 0.00 | 0.32 | 0.15 | 85 | 1014.3 |
| 20260505151514 | 59 | 205 | 5.0 | 7.0 | 0.00 | 0.32 | 0.15 | 85 | 1014.3 |
| 20260505124509 | 57 | 326 | 1.0 | 2.0 | 0.00 | 0.32 | 0.15 | 90 | 1013.3 |
| 20260505123012 | 57 | 271 | 0.0 | 2.0 | 0.01 | 0.32 | 0.15 | 90 | 1013.0 |
| 20260505121519 | 57 | 242 | 0.0 | 2.0 | 0.01 | 0.32 | 0.15 | 90 | 1013.1 |
| 20260505120005 | 57 | 233 | 1.0 | 2.0 | 0.01 | 0.32 | 0.15 | 90 | 1012.9 |
| 20260505114506 | 57 | 156 | 0.0 | 4.0 | 0.02 | 0.32 | 0.15 | 90 | 1012.4 |
| 20260505113012 | 57 | 216 | 2.0 | 5.0 | 0.01 | 0.31 | 0.14 | 90 | 1012.8 |
| 20260505111514 | 57 | 188 | 2.0 | 5.0 | 0.03 | 0.31 | 0.14 | 89 | 1012.8 |
| 20260505101521 | 58 | 204 | 13.0 | 22.0 | 0.02 | 0.28 | 0.11 | 84 | 1013.8 |
| 20260505100018 | 58 | 219 | 11.0 | 18.0 | 0.01 | 0.27 | 0.10 | 85 | 1013.6 |
| 20260505094529 | 59 | 203 | 9.0 | 13.0 | 0.02 | 0.27 | 0.10 | 80 | 1013.4 |
| 20260505093024 | 59 | 170 | 10.0 | 14.0 | 0.03 | 0.27 | 0.10 | 80 | 1013.7 |
| 20260505091509 | 58 | 238 | 5.0 | 7.0 | 0.03 | 0.26 | 0.09 | 82 | 1014.1 |
| 20260505090013 | 58 | 265 | 1.0 | 8.0 | 0.04 | 0.26 | 0.09 | 82 | 1013.9 |
| 20260505084532 | 58 | 160 | 6.0 | 16.0 | 0.04 | 0.25 | 0.08 | 81 | 1014.6 |
| 20260505083027 | 58 | 174 | 12.0 | 19.0 | 0.05 | 0.24 | 0.07 | 82 | 1015.0 |
| 20260505081527 | 58 | 165 | 8.0 | 16.0 | 0.06 | 0.23 | 0.06 | 81 | 1015.4 |
| 20260505080011 | 59 | 180 | 10.0 | 17.0 | 0.05 | 0.22 | 0.05 | 81 | 1016.1 |
| 20260505074515 | 59 | 171 | 11.0 | 15.0 | 0.06 | 0.21 | 0.04 | 82 | 1016.1 |
| 20260505073034 | 59 | 209 | 4.0 | 7.0 | 0.05 | 0.19 | 0.02 | 84 | 1016.6 |
| 20260505071525 | 59 | 219 | 2.0 | 5.0 | 0.05 | 0.17 | 0.00 | 84 | 1016.6 |
| 20260505070036 | 59 | 190 | 2.0 | 5.0 | 0.05 | 0.17 | 0.00 | 83 | 1016.3 |
| 20260505064511 | 59 | 234 | 3.0 | 6.0 | 0.04 | 0.15 | 0.15 | 82 | 1016.4 |
| 20260505063022 | 59 | 272 | 1.0 | 6.0 | 0.04 | 0.14 | 0.14 | 82 | 1016.4 |
| 20260505061532 | 59 | 239 | 4.0 | 7.0 | 0.02 | 0.12 | 0.12 | 80 | 1016.5 |
| 20260505060026 | 59 | 235 | 5.0 | 8.0 | 0.02 | 0.12 | 0.12 | 79 | 1016.6 |
| 20260505054533 | 59 | 183 | 7.0 | 10.0 | 0.02 | 0.11 | 0.11 | 78 | 1016.2 |
| 20260505053020 | 59 | 195 | 7.0 | 11.0 | 0.02 | 0.10 | 0.10 | 79 | 1016.3 |
| 20260505051524 | 59 | 197 | 4.0 | 6.0 | 0.03 | 0.10 | 0.10 | 80 | 1016.1 |
| 20260505041532 | 59 | 233 | 5.0 | 10.0 | 0.03 | 0.07 | 0.07 | 73 | 1016.6 |
| 20260505040007 | 61 | 220 | 9.0 | 12.0 | 0.01 | 0.05 | 0.05 | 66 | 1016.4 |
| 20260505034515 | 61 | 302 | 7.0 | 12.0 | 0.01 | 0.05 | 0.05 | 66 | 1016.2 |
| 20260505033014 | 62 | 251 | 4.0 | 10.0 | 0.01 | 0.05 | 0.05 | 65 | 1015.3 |
| 20260505031533 | 62 | 70 | 1.0 | 11.0 | 0.00 | 0.04 | 0.04 | 61 | 1014.9 |
| 20260505030020 | 61 | 178 | 7.0 | 16.0 | 0.01 | 0.04 | 0.04 | 59 | 1015.4 |
| 20260505024507 | 60 | 144 | 7.0 | 16.0 | 0.02 | 0.04 | 0.04 | 57 | 1015.3 |
| 20260505023012 | 60 | 147 | 8.0 | 11.0 | 0.04 | 0.04 | 0.04 | 68 | 1015.5 |
| 20260505021516 | 60 | 149 | 5.0 | 8.0 | 0.04 | 0.04 | 0.04 | 65 | 1015.9 |
| 20260505020020 | 61 | 201 | 3.0 | 6.0 | 0.03 | 0.03 | 0.03 | 59 | 1016.4 |
| 20260505014531 | 63 | 197 | 1.0 | 3.0 | 0.02 | 0.02 | 0.02 | 56 | 1016.3 |
| 20260505013011 | 64 | 187 | 4.0 | 9.0 | 0.00 | 0.00 | 0.00 | 52 | 1016.3 |
| 20260505011514 | 65 | 161 | 10.0 | 14.0 | 0.00 | 0.00 | 0.00 | 47 | 1015.8 |
| 20260505010022 | 65 | 174 | 10.0 | 16.0 | 0.00 | 0.00 | 0.00 | 45 | 1015.3 |
| 20260505004526 | 67 | 221 | 11.0 | 19.0 | 0.00 | 0.00 | 0.00 | 41 | 1015.4 |
| 20260505003024 | 68 | 232 | 13.0 | 20.0 | 0.00 | 0.00 | 0.00 | 38 | 1015.4 |